Погода в Краснощекове

Россия / Оренбургская область     51°17′41″N   57°15′32″E
темп.,
°C
ветер,
м/с
пор.,
м/с
влажн.,
%
обл.,
%
осадки,
мм/ч
давл.,
гПа
погр.,
м
3 августа, вт
вт323:00+25св22365 0.0 101420
02:00+22в11415 0.0 101411
05:00+21всв11455 0.0 101511
08:00+25всв223724 0.0 1016171
11:00+32юв21255 0.0 1015690
14:00+36зюз13185 0.0 10132545
17:00+37зсз141614 0.0 10123609
20:00+34юз332154 0.0 101143
4 августа, ср
ср423:00+28вюв233126 0.0 101241
02:00+26ю38345 0.0 1012136
05:00+24ююз233651 0.0 101346
08:00+28ю223028 0.0 1013153
11:00+35з34185 0.0 1012926
14:00+39зсз351282 0.0 10114415
17:00+35зюз3316100 0.1 10111064
20:00+32всв33225 0.0 101048
5 августа, чт
чт523:00+26юв373727 0.0 1012151
02:00+25в223819 0.0 101117
05:00+23юв114129 0.0 101111
08:00+27юв223299 0.0 1010142
11:00+35з341877 0.0 10091085
14:00+37зюз4513100 0.0 10083580
17:00+38з471398 0.0 10074263
20:00+32сз5924100 0.0 1008421
6 августа, пт
пт623:00+23св355298 0.3 101180
02:00+21ссв2258100 0.1 101016
05:00+20зсз11634 0.1 101011
08:00+22ссз34582 0.0 1011306
11:00+27с78345 0.0 10111492
14:00+30ссз66203 0.0 10112301
17:00+31ссз55184 0.0 10102593
20:00+27ссз610255 0.0 1011495
7 августа, сб
сб723:00+21ссз41041100 0.0 1013224
02:00+18ссв37535 0.0 1014161
05:00+16ссв366246 0.0 1015116
08:00+20св34495 0.0 1016308
11:00+25с3330100 0.0 10161456
14:00+29ссз34185 0.0 10152006
17:00+31ссз44149 0.0 10142369
20:00+27с33180 0.0 101531